Location: Zaragoza
(41.6330°N, 0.8830°W)
Time: 19:55:42
(UTC+01:00)

ISS - Visible Passes

Search period start: 14 December 2018 00:00
Search period end: 24 December 2018 00:00
Orbit: 401 x 408 km, 51.6° (Epoch: 15 December)

Date Brightness Start Highest point End Pass type
(mag) Time Alt. Az. Time Alt. Az. Time Alt. Az.
14 Dec -1.1 18:49:57 10° W 18:52:29 21° SW 18:55:00 10° S visible
21 Dec -0.6 07:53:32 10° S 07:55:54 18° SE 07:58:16 10° E visible
23 Dec -2.5 07:44:32 10° SSW 07:47:39 43° SE 07:50:49 10° ENE visible
